Tracking 31027 objects as of 19-Jul-2025
HD Live streaming from Space Station
objects crossing your sky now

CZ-4C DEB

Track CZ-4C DEB now!
10-day predictions


NORAD ID: 44617
Int'l Code: 2018-034J
Perigee: 946.1 km
Apogee: 1,279.4 km
Inclination: 63.4 °
Period: 107.4 minutes
Semi major axis: 7483 km
RCS: Unknown
Launch date: April 10, 2018
Source: People's Republic of China (PRC)
Launch site: Taiyaun Space Center, China (TSC)

Note: This is SATELLITE DEBRIS
Your satellite tracking list
ST5-A
Track 1 satellite(s)




NASA's NSSDC Master Catalog

Two Line Element Set (TLE):
1 44617U 18034J   25199.50225494 -.00000077  00000-0  18357-4 0  9998
2 44617  63.3996 281.8878 0222732   6.5914 353.7955 13.40988465349499
Source of the keplerian elements: AFSPC